Dewpoint
54 54 54 54 54 54 54 55 55 55 56 56 57 59 58 57 57 55 53 54 51 48 46 47 45 44 41 41 37 41 40 44 41 41 36 34 34 37 39 36 37 35 32 30 34 33 30 41 45 41 49 49 51 52
54 53 52 52 53 53 53 53 55 56 56 56 57 58 58 57 57 56 53 53 53 50 47 50 50 49 48 45 44 41 44 46 43 44 45 44 39 42 37 32 49 37 35 36 34 35 51 48 46 48 49 51 53 53
53 52 52 52 52 53 53 53 54 55 56 56 57 57 58 57 56 56 54 52 52 50 48 47 44 47 47 47 46 44 42 43 46 53 46 46 46 48 37 37 41 51 52 43 46 36 41 46 48 50 51 51 51 51
52 52 52 52 52 52 52 53 53 54 55 56 57 58 58 57 56 57 54 53 52 50 46 42 45 45 48 47 46 45 44 46 46 49 44 43 42 48 43 48 46 50 52 47 47 47 47 47 50 51 50 50 51 51
52 52 51 50 50 50 50 51 53 54 55 56 57 57 58 57 55 56 55 53 53 49 46 45 46 45 45 46 47 47 45 43 43 43 41 40 43 46 47 46 39 46 45 46 41 51 50 48 49 50 50 52 54 54
51 51 50 50 50 51 51 51 52 54 55 56 57 57 57 56 55 54 52 55 55 53 48 43 45 46 46 47 47 47 47 45 45 43 41 41 45 44 37 36 41 39 43 44 46 48 52 51 49 50 51 53 55 55
51 50 50 50 51 52 52 52 53 54 55 55 56 57 56 55 55 52 49 52 53 54 49 45 43 44 47 48 46 46 46 47 47 44 42 41 44 46 39 38 41 41 44 44 45 46 48 48 49 50 53 55 58 58
50 50 50 52 53 53 53 53 53 54 55 55 56 56 55 54 54 52 53 52 53 51 49 45 42 42 46 44 44 47 46 47 47 44 43 42 46 47 41 44 44 44 43 45 46 47 46 47 50 52 54 56 56 57
49 50 52 52 53 54 53 53 53 54 55 55 55 55 54 53 51 51 55 54 54 50 47 45 41 39 45 45 45 45 46 44 45 43 42 43 42 44 44 48 46 45 46 47 48 46 48 50 52 52 53 54 54 55
50 49 50 51 52 53 54 53 53 54 55 55 54 52 49 53 56 55 52 49 49 50 48 45 44 41 43 43 44 43 44 41 42 42 45 44 40 44 46 48 55 56 55 54 52 50 48 51 52 52 52 52 52 54
49 49 49 50 51 52 54 53 53 54 54 53 51 50 54 56 53 51 48 46 46 45 47 46 45 43 43 40 41 44 42 41 37 40 41 38 39 44 55 57 58 59 59 58 58 57 53 49 52 53 53 55 55 58
48 48 48 49 50 50 52 53 53 54 54 53 53 55 54 51 49 46 45 47 45 43 45 44 45 45 44 46 40 44 42 43 37 44 41 37 43 58 57 56 56 56 56 56 54 55 55 53 52 53 54 57 58 62
48 48 48 48 49 50 51 53 53 53 53 54 52 49 48 48 41 42 41 43 43 44 44 44 43 43 45 44 41 42 44 39 45 40 38 39 57 58 59 58 55 54 55 57 57 53 53 53 54 54 56 59 62 63
48 48 48 48 47 49 50 51 54 53 53 49 46 40 43 42 42 42 42 42 45 48 47 45 45 43 42 41 39 40 41 46 39 36 37 44 59 59 58 58 55 54 54 54 56 57 53 53 54 55 57 61 63 63
48 48 48 49 47 48 49 50 52 53 51 47 47 40 43 42 44 45 45 46 46 46 46 46 45 45 43 39 38 40 41 38 36 36 39 54 59 58 57 57 56 55 55 55 55 56 58 55 54 56 59 61 63 64
47 47 47 47 47 48 48 50 51 51 49 47 47 43 43 42 42 43 44 44 46 44 45 47 49 47 43 38 38 37 34 32 38 49 52 56 59 58 57 57 57 56 56 55 56 56 57 59 57 55 57 61 62 63
46 46 48 47 47 48 48 49 48 46 46 45 43 45 43 45 46 48 49 48 48 47 49 50 46 45 44 40 37 35 34 40 51 51 52 58 59 59 58 58 58 58 57 57 58 59 58 60 60 59 60 61 60 62
44 48 47 46 48 48 49 48 46 46 44 45 44 42 43 45 49 50 50 50 50 48 49 48 50 46 45 40 38 46 50 51 51 52 53 58 60 60 58 60 61 60 59 58 59 59 59 59 60 59 61 62 61 62
45 48 47 45 47 46 45 46 47 42 42 43 44 44 44 45 50 51 50 50 50 51 49 48 47 46 48 49 50 49 50 50 52 52 54 58 58 58 59 59 59 59 60 60 59 56 57 61 59 59 59 61 60 60
45 45 46 46 46 44 43 44 48 44 41 42 43 46 46 43 46 49 49 49 49 48 45 44 47 51 53 53 52 51 51 52 52 50 51 51 52 56 55 55 54 57 57 61 61 53 60 60 60 60 59 59 61 60
45 44 46 45 46 44 42 43 43 44 44 41 41 42 43 44 42 41 43 48 47 46 44 48 47 47 55 57 53 53 54 52 49 49 50 49 52 52 52 52 53 52 53 54 57 59 56 59 61 62 61 62 63 60
43 46 44 43 41 42 42 44 43 46 43 41 40 43 41 39 40 40 41 41 42 41 42 43 46 50 51 55 53 53 52 53 51 48 47 48 45 46 45 46 47 46 48 52 56 57 57 58 60 61 62 62 61 61
43 44 42 41 40 39 37 44 42 42 39 39 39 38 38 38 38 39 37 38 38 41 41 43 47 49 48 50 52 51 51 50 46 45 45 44 44 44 44 47 46 46 46 47 53 57 58 54 58 61 61 61 62 62
43 40 38 37 37 35 37 36 38 37 38 36 34 33 33 34 37 37 33 35 37 40 40 48 43 43 44 48 44 45 46 46 44 44 44 43 40 41 43 44 45 45 44 48 49 54 62 62 55 59 60 61 60 59
37 34 35 34 35 33 31 32 32 33 32 33 32 31 31 34 31 30 30 31 34 37 38 41 41 41 39 40 42 44 46 44 43 42 42 41 41 40 41 44 43 42 41 46 46 49 59 60 60 59 59 59 59 57
32 32 33 31 31 31 30 28 29 30 30 30 30 31 33 30 29 27 29 31 33 37 39 40 40 40 39 41 41 39 40 42 42 40 40 40 42 41 43 42 39 39 40 43 46 46 56 59 61 59 59 58 51 57
30 29 31 32 31 31 30 30 31 32 31 29 29 29 29 26 25 26 35 40 39 41 44 43 42 41 41 42 42 43 45 45 46 42 42 45 44 43 42 40 42 44 48 47 49 51 54 57 59 60 59 59 57 56
30 30 28 30 30 29 29 28 27 28 28 30 31 28 26 23 24 32 37 41 41 40 38 37 37 37 37 37 38 39 42 45 46 46 44 44 45 46 48 49 50 47 50 54 53 53 56 57 58 59 59 59 57 56
31 32 33 33 31 30 29 28 26 26 28 30 29 27 28 33 35 37 42 40 39 38 37 35 36 37 36 37 37 37 37 39 41 42 41 37 37 41 44 49 48 50 51 49 46 49 56 57 57 58 59 58 57 56
31 32 31 31 31 30 29 28 28 26 26 28 31 31 32 32 32 37 38 40 39 37 37 36 34 33 33 32 32 34 35 36 39 41 39 37 37 41 44 44 49 54 51 49 51 55 47 54 53 57 57 57 56 58
30 30 30 30 28 30 30 29 29 30 29 30 30 30 29 29 28 30 32 34 34 34 33 31 30 32 33 32 32 32 33 35 38 45 45 44 45 45 45 47 50 53 56 52 52 55 55 54 54 56 56 57 57 53
30 30 31 30 31 35 37 34 33 34 33 33 32 34 34 34 34 34 34 34 34 34 35 35 33 33 34 34 35 36 36 35 35 42 43 44 46 47 47 46 46 48 53 55 57 54 55 53 53 53 53 54 55 55
37 37 37 37 37 37 39 39 39 38 40 39 40 40 41 41 38 38 39 40 38 36 37 36 36 37 39 38 39 38 38 39 39 38 39 40 40 41 45 49 47 48 50 51 51 52 54 53 53 54 54 53 53 53
Lifted_Index
11 11 11 11 11 10 10 9 9 8 7 7 6 5 6 6 5 4 3 4 4 3 3 3 3 2 2 2 1 0 -1 -1 -2 -3 -3 -3 -3 -2 -2 -2 -3 -2 -2 -2 -2 -2 -2 -2 -2 -3 -3 -4 -3 -3
11 11 11 11 11 10 10 9 9 8 7 7 6 5 5 6 5 5 4 4 4 3 3 3 3 3 2 2 1 1 -0 -1 -2 -3 -3 -3 -3 -3 -3 -3 -3 -3 -2 -2 -2 -2 -2 -3 -3 -3 -3 -3 -3 -3
11 11 11 11 11 11 10 9 9 8 8 7 6 5 5 5 5 5 5 4 4 3 3 3 3 3 3 3 2 1 0 -0 -1 -2 -3 -3 -4 -4 -3 -3 -4 -4 -3 -3 -3 -2 -2 -3 -3 -3 -3 -3 -3 -2
12 12 11 11 11 11 10 10 9 8 8 7 6 5 5 5 5 5 5 5 4 3 3 3 3 3 3 3 2 2 1 1 -0 -1 -1 -2 -3 -3 -3 -3 -3 -4 -4 -3 -3 -3 -3 -2 -2 -2 -2 -2 -2 -2
12 12 12 11 11 11 11 10 9 8 8 7 6 5 5 5 5 5 5 5 5 4 3 3 3 3 3 3 3 2 2 2 1 0 -0 -1 -1 -2 -2 -2 -2 -2 -3 -3 -3 -3 -3 -2 -2 -1 -1 -2 -2 -2
12 12 11 11 11 11 11 10 9 8 7 7 6 5 5 5 5 5 4 5 5 4 3 3 2 2 2 2 2 2 2 2 1 1 1 0 -1 -1 -0 -0 -0 -1 -1 -2 -2 -2 -2 -2 -2 -2 -2 -2 -3 -3
11 11 11 11 11 11 11 10 10 8 7 7 6 5 5 5 5 4 4 5 5 5 3 2 2 2 2 2 2 2 2 1 1 1 1 0 -0 -0 0 0 -0 -0 -0 -0 -0 -1 -1 -1 -2 -2 -3 -3 -3 -3
11 11 11 12 11 11 10 10 10 9 8 7 6 6 6 6 5 4 4 5 5 4 3 2 2 2 1 1 1 1 1 1 1 1 1 0 -0 -0 0 0 -0 -0 0 -0 -0 -0 -1 -2 -2 -3 -3 -3 -4 -4
11 11 12 12 11 11 10 10 9 9 8 7 6 6 5 5 5 5 4 4 4 4 3 2 2 1 1 1 1 1 1 0 0 1 0 0 0 -0 -0 -1 -1 -1 -1 -1 -1 -1 -2 -2 -3 -3 -3 -3 -3 -3
11 11 12 11 11 10 9 9 9 9 8 7 6 5 5 5 5 5 4 4 3 3 3 2 2 1 1 1 0 0 0 0 0 0 -0 -0 0 -0 -1 -1 -2 -3 -3 -2 -2 -3 -3 -3 -3 -3 -3 -3 -3 -4
11 11 12 11 10 9 9 9 8 8 8 7 6 5 5 5 5 4 4 4 3 3 2 2 2 2 1 1 0 0 -0 -0 -0 -0 -0 -0 -0 -1 -2 -3 -3 -3 -3 -3 -4 -4 -4 -4 -4 -4 -4 -4 -4 -4
11 11 11 11 11 10 8 8 8 8 8 7 6 5 5 4 4 4 4 4 3 2 2 1 1 2 2 2 1 0 -0 -1 -1 -1 -0 -1 -2 -3 -3 -3 -3 -3 -3 -4 -4 -4 -4 -4 -4 -4 -5 -5 -5 -5
11 11 12 11 11 10 8 7 7 7 7 7 6 5 4 4 4 4 4 3 3 2 1 1 1 2 2 2 2 1 -0 -1 -1 -1 -1 -1 -3 -4 -3 -3 -3 -3 -3 -4 -4 -4 -4 -4 -4 -4 -5 -5 -6 -6
11 12 12 12 11 10 8 7 7 7 7 6 5 4 4 4 3 3 3 2 2 1 1 0 1 1 2 2 2 1 -0 -1 -1 -0 -1 -2 -4 -4 -3 -2 -2 -2 -3 -3 -4 -4 -4 -4 -4 -4 -5 -6 -6 -6
12 12 12 12 11 10 8 7 7 7 7 6 5 4 4 3 3 3 2 2 2 2 1 1 0 0 1 1 1 1 0 0 0 -0 -1 -3 -3 -3 -2 -2 -2 -2 -2 -3 -3 -4 -4 -4 -4 -4 -5 -6 -6 -6
12 12 12 12 11 10 9 8 7 7 6 6 5 4 3 3 2 2 2 2 2 2 2 1 0 0 0 1 1 1 1 1 -0 -1 -2 -3 -3 -2 -2 -1 -1 -2 -2 -2 -3 -3 -4 -4 -4 -4 -5 -5 -6 -6
12 12 12 12 11 10 9 8 7 7 6 6 5 4 3 2 2 2 2 3 3 2 2 1 1 0 0 1 1 1 0 -0 -1 -2 -2 -2 -2 -2 -2 -2 -2 -2 -2 -2 -3 -3 -4 -4 -4 -4 -5 -5 -5 -5
12 12 12 12 11 10 9 8 7 6 6 5 4 3 2 2 2 3 3 3 3 3 2 2 1 1 0 -0 -0 -1 -1 -2 -2 -2 -2 -2 -2 -2 -2 -2 -2 -2 -2 -2 -2 -3 -4 -4 -4 -4 -5 -5 -5 -5
12 12 12 12 11 9 8 8 7 6 5 5 4 3 2 2 3 3 3 3 3 3 3 2 2 1 0 -0 -1 -2 -2 -2 -2 -1 -1 -1 -1 -2 -2 -2 -2 -2 -2 -2 -3 -3 -3 -4 -4 -4 -4 -4 -5 -5
13 12 12 12 11 9 8 7 7 6 5 5 4 3 3 3 3 3 4 4 4 4 3 3 2 2 1 -0 -1 -2 -2 -2 -1 -1 -0 -0 -0 -1 -1 -1 -1 -1 -2 -2 -3 -3 -3 -3 -3 -3 -3 -3 -4 -4
12 12 12 11 10 9 8 7 7 6 6 5 4 4 3 3 3 3 4 4 4 4 4 3 2 2 1 0 -1 -1 -1 -1 -0 0 1 1 1 1 1 0 0 -0 -1 -1 -2 -2 -2 -3 -3 -3 -2 -2 -3 -3
11 11 10 10 9 8 8 7 7 6 6 6 5 4 4 4 4 4 4 4 4 4 4 3 3 2 2 1 0 0 0 1 1 1 2 2 2 2 2 1 1 1 1 0 -1 -2 -2 -2 -2 -2 -1 -1 -2 -2
10 10 9 9 8 7 7 7 7 7 6 6 5 5 5 5 5 5 5 4 4 4 4 4 3 3 2 2 2 1 2 2 2 2 3 3 3 3 3 2 2 2 2 2 0 -1 -2 -2 -1 -1 -1 -1 -1 -1
9 8 8 7 7 7 7 7 7 6 6 6 5 5 5 5 5 5 5 5 5 5 4 4 4 3 3 3 2 2 2 3 3 3 3 3 4 4 3 3 3 3 3 3 2 0 -1 -2 -1 -0 -0 -0 -1 -1
7 7 7 6 6 6 6 6 6 6 5 5 5 5 5 5 6 6 6 5 5 5 5 4 4 4 3 3 3 3 3 3 3 3 4 4 4 4 4 3 4 4 4 4 3 2 -1 -1 -0 0 0 -0 -1 -1
6 6 6 6 6 6 5 5 5 5 5 5 5 5 5 6 6 6 6 6 5 5 5 4 4 4 4 3 3 4 4 4 4 4 4 4 4 4 4 4 4 4 4 4 3 2 0 -1 -1 0 0 0 -0 -0
5 5 6 6 6 6 6 5 5 5 5 5 5 5 5 5 5 6 6 5 5 5 5 5 5 5 4 4 5 4 4 4 4 4 4 4 4 4 4 4 4 4 3 3 2 1 -0 -1 -1 -1 -0 0 0 0
6 6 6 6 6 6 6 6 6 6 5 5 5 5 5 5 5 5 5 5 5 6 6 6 6 6 5 5 5 5 5 4 4 4 4 4 4 3 3 3 3 3 2 2 2 1 -0 -1 -2 -2 -1 -0 0 0
7 7 6 6 6 7 7 6 6 6 6 5 5 5 5 4 4 4 4 4 5 5 6 6 6 6 6 6 6 6 6 5 4 4 4 4 4 3 3 3 2 2 2 2 2 2 0 -1 -1 -1 -1 -0 0 0
8 8 7 7 7 7 7 7 7 6 6 6 5 5 5 5 5 4 4 4 4 5 5 6 6 7 7 7 7 7 6 6 5 4 4 4 4 3 3 3 2 1 1 2 2 1 0 -0 -0 -1 -1 -0 -0 0
8 7 7 6 6 6 6 6 6 6 6 6 5 5 5 5 5 5 5 5 5 5 5 5 6 6 6 7 7 7 7 6 5 4 4 4 3 3 3 3 2 1 0 0 0 -0 -0 -0 -0 -1 -0 -0 -0 -0
6 6 6 5 5 5 5 5 5 5 5 5 5 4 4 4 4 4 4 4 5 5 5 5 5 5 5 6 6 7 7 6 6 5 4 4 4 3 3 3 2 1 0 -0 -0 -1 -1 -0 -0 -0 -0 -0 -0 0
5 5 5 5 5 5 5 5 4 4 4 4 4 3 3 3 3 3 3 4 4 4 4 5 5 5 5 5 5 6 6 6 6 6 5 4 4 4 3 3 2 2 1 0 -0 -0 -1 -1 -0 -0 -0 -0 -0 0